Tracking 29892 objects as of 21-Nov-2024
HD Live streaming from Space Station
objects crossing your sky now

DELTA 1 DEB

Track DELTA 1 DEB now!
10-day predictions


NORAD ID: 19834
Int'l Code: 1972-058JM
Perigee: 604.0 km
Apogee: 789.4 km
Inclination: 98.5 °
Period: 98.6 minutes
Semi major axis: 7067 km
RCS: 0.0177 m2 (small)
Launch date: July 23, 1972
Source: United States (US)
Launch site: AIR FORCE WESTERN TEST RANGE (AFWTR)

Note: This is SATELLITE DEBRIS
Your satellite tracking list
Your tracking list is empty




NASA's NSSDC Master Catalog

Two Line Element Set (TLE):
1 19834U 72058JM  24324.78148990  .00001489  00000-0  27833-3 0  9996
2 19834  98.5365  78.5507 0131194  30.8111 330.0705 14.61121607856082
Source of the keplerian elements: AFSPC